Date String (YYYY-MM-DD hh:mm:ss) UTC,Instrument flags,Ambient pressure (hPa),Sample flow (lpm),Bypass flow (lpm),Sample temperature (°C),Ambient temperature (°C),ASC tube jacket temperature (°C),LED temperature (°C),Box temperature (°C),Sample RH (%),Span deviation,Mass concentration (μg/m³),Mass concentration (μg/m³),Mass concentration (μg/m³)
DateTimeUTC,F1_M11,P_M11,Q1_M11,Q2_M11,T1_M11,T2_M11,T3_M11,T4_M11,T5_M11,U1_M11,ZSPAN_M11,X0_M11,X2_M11,X1_M11
2022-02-24 04:00:00,,0822.3,5.00,0.00,22.6,22.2,00.0,31.6,24.4,04.5,0002.7,0009.72,0006.13,0005.69
2022-02-24 04:01:00,,0822.5,4.99,0.00,22.6,22.0,00.0,31.6,24.3,04.5,0002.5,0009.63,0006.08,0005.63
2022-02-24 04:02:00,,0822.5,5.00,0.00,22.5,21.9,00.0,31.6,24.2,04.5,0001.3,0009.48,0006.04,0005.60
2022-02-24 04:03:00,,0822.6,5.00,0.00,22.5,21.8,00.0,31.5,24.2,04.5,0001.2,0009.34,0005.97,0005.53
2022-02-24 04:04:00,,0822.7,5.00,0.00,22.4,21.6,00.0,31.5,24.1,04.5,0000.9,0009.29,0005.90,0005.46
2022-02-24 04:05:00,,0822.9,5.00,0.00,22.4,21.7,00.0,31.5,24.1,04.5,0000.8,0009.18,0005.80,0005.38
2022-02-24 04:06:00,,0823.0,4.99,0.00,22.5,22.3,00.0,31.5,24.2,04.5,0000.4,0009.10,0005.73,0005.31
2022-02-24 04:07:00,,0823.2,5.01,0.00,22.6,23.0,00.0,31.6,24.5,04.5,0000.3,0009.07,0005.67,0005.25
2022-02-24 04:08:00,,0823.2,5.00,0.00,22.7,23.2,00.0,31.6,24.6,04.5,0000.6,0009.29,0005.69,0005.22
2022-02-24 04:09:00,,0823.1,4.99,0.00,22.7,22.9,00.0,31.6,24.5,04.5,0000.7,0009.32,0005.71,0005.22
2022-02-24 04:10:00,,0823.1,5.01,0.00,22.6,22.5,00.0,31.6,24.4,04.5,0000.0,0009.16,0005.71,0005.21
2022-02-24 04:11:00,,0822.9,4.99,0.00,22.6,22.3,00.0,31.6,24.3,04.6,-000.1,0008.82,0005.68,0005.19
2022-02-24 04:12:00,,0822.9,5.02,0.00,22.5,22.0,00.0,31.6,24.2,04.6,-000.1,0009.01,0005.71,0005.19
2022-02-24 04:13:00,,0823.0,5.00,0.00,22.5,21.9,00.0,31.5,24.2,04.6,0001.0,0009.11,0005.69,0005.17
2022-02-24 04:14:00,,0823.0,5.00,0.00,22.5,21.8,00.0,31.5,24.1,04.6,0001.0,0009.16,0005.66,0005.14
2022-02-24 04:15:00,,0822.9,5.00,0.00,22.4,21.6,00.0,31.5,24.1,04.6,0000.0,0009.28,0005.63,0005.10
2022-02-24 04:16:00,,0822.9,5.00,0.00,22.4,21.6,00.0,31.5,24.0,04.6,0000.1,0009.26,0005.60,0005.07
2022-02-24 04:17:00,,0822.8,5.00,0.00,22.4,22.1,00.0,31.5,24.1,04.6,0000.5,0009.30,0005.59,0005.03
2022-02-24 04:18:00,,0822.9,4.99,0.00,22.5,22.8,00.0,31.5,24.4,04.6,0001.2,0009.14,0005.52,0004.99
2022-02-24 04:19:00,,0822.8,5.00,0.00,22.7,23.2,00.0,31.5,24.6,04.5,0001.2,0009.64,0005.42,0004.94
2022-02-24 04:20:00,,0822.9,5.01,0.00,22.7,23.0,00.0,31.6,24.6,04.5,0001.1,0009.70,0005.33,0004.87
2022-02-24 04:21:00,,0823.0,5.00,0.00,22.7,22.7,00.0,31.6,24.5,04.5,0001.0,0010.09,0005.24,0004.78
2022-02-24 04:22:00,,0823.0,4.99,0.00,22.7,22.4,00.0,31.6,24.5,04.5,0000.8,0010.06,0005.19,0004.71
2022-02-24 04:23:00,,0822.8,5.00,0.00,22.6,22.2,00.0,31.6,24.4,04.5,0000.1,0009.84,0005.11,0004.66
2022-02-24 04:24:00,,0822.4,5.01,0.00,22.6,22.0,00.0,31.5,24.3,04.5,0001.5,0009.82,0005.08,0004.62
2022-02-24 04:25:00,,0822.3,4.99,0.00,22.5,21.8,00.0,31.5,24.3,04.5,0000.0,0010.34,0005.09,0004.61
2022-02-24 04:26:00,,0822.2,4.99,0.00,22.5,21.7,00.0,31.5,24.2,04.6,0002.4,0010.12,0005.07,0004.62
2022-02-24 04:27:00,,0822.3,5.00,0.00,22.4,21.5,00.0,31.5,24.1,04.6,0003.6,0010.40,0005.07,0004.62
2022-02-24 04:28:00,,0822.6,5.00,0.00,22.4,21.6,00.0,31.5,24.1,04.6,0003.5,0010.52,0005.02,0004.63
2022-02-24 04:29:00,,0822.7,5.00,0.00,22.5,22.3,00.0,31.5,24.2,04.6,0002.0,0010.60,0005.03,0004.65
2022-02-24 04:30:00,,0822.6,5.00,0.00,22.6,23.0,00.0,31.6,24.5,04.6,0002.5,0010.08,0005.09,0004.67
2022-02-24 04:31:00,,0822.5,5.01,0.00,22.7,23.2,00.0,31.6,24.6,04.5,0000.6,0009.98,0005.13,0004.69
2022-02-24 04:32:00,,0822.3,5.01,0.00,22.7,22.9,00.0,31.6,24.6,04.5,0000.0,0009.38,0005.17,0004.70
2022-02-24 04:33:00,,0822.3,4.99,0.00,22.7,22.6,00.0,31.6,24.5,04.6,0000.0,0009.43,0005.21,0004.72
2022-02-24 04:34:00,,0822.3,5.00,0.00,22.7,22.3,00.0,31.6,24.4,04.6,0000.1,0009.51,0005.25,0004.73
2022-02-24 04:35:00,,0822.5,5.00,0.00,22.6,22.0,00.0,31.6,24.4,04.6,0000.4,0009.44,0005.22,0004.72
2022-02-24 04:36:00,,0822.5,5.00,0.00,22.6,21.8,00.0,31.5,24.3,04.6,0000.0,0009.00,0005.18,0004.70
2022-02-24 04:37:00,,0822.4,5.00,0.00,22.5,21.6,00.0,31.5,24.2,04.6,0000.0,0009.06,0005.17,0004.69
2022-02-24 04:38:00,,0822.4,5.00,0.00,22.4,21.5,00.0,31.5,24.1,04.6,0000.0,0008.82,0005.17,0004.69
2022-02-24 04:39:00,,0822.3,4.99,0.00,22.4,21.5,00.0,31.5,24.1,04.7,0000.0,0008.48,0005.18,0004.70
2022-02-24 04:40:00,,0822.3,5.00,0.00,22.4,22.1,00.0,31.5,24.1,04.7,0000.0,0008.51,0005.21,0004.68
2022-02-24 04:41:00,,0822.4,5.01,0.00,22.6,22.8,00.0,31.5,24.4,04.6,0000.0,0008.43,0005.18,0004.66
2022-02-24 04:42:00,,0822.5,4.99,0.00,22.7,23.2,00.0,31.6,24.6,04.6,0000.0,0008.36,0005.13,0004.65
2022-02-24 04:43:00,,0822.5,4.99,0.00,22.7,22.9,00.0,31.6,24.6,04.6,0000.0,0008.32,0005.09,0004.63
2022-02-24 04:44:00,,0822.5,5.00,0.00,22.7,22.6,00.0,31.6,24.5,04.6,0000.3,0008.35,0005.06,0004.62
2022-02-24 04:45:00,,0822.4,5.00,0.00,22.6,22.3,00.0,31.6,24.4,04.6,0000.6,0008.29,0005.02,0004.60
2022-02-24 04:46:00,,0822.3,5.00,0.00,22.6,22.0,00.0,31.5,24.4,04.6,0000.0,0008.29,0005.02,0004.59
2022-02-24 04:47:00,,0822.4,5.00,0.00,22.6,21.8,00.0,31.5,24.3,04.6,0000.0,0008.21,0005.01,0004.59
2022-02-24 04:48:00,,0822.3,5.02,0.00,22.5,21.7,00.0,31.5,24.2,04.7,0000.0,0008.06,0005.01,0004.57
2022-02-24 04:49:00,,0822.3,5.00,0.00,22.5,21.6,00.0,31.5,24.1,04.7,0000.0,0008.13,0005.02,0004.55
2022-02-24 04:50:00,,0822.3,5.00,0.00,22.4,21.5,00.0,31.5,24.1,04.7,0000.0,0008.14,0005.02,0004.53
2022-02-24 04:51:00,,0822.3,5.00,0.00,22.4,22.0,00.0,31.5,24.1,04.7,0000.0,0008.03,0004.96,0004.50
2022-02-24 04:52:00,,0822.2,5.00,0.00,22.6,22.7,00.0,31.5,24.4,04.7,0000.0,0007.93,0004.90,0004.48
2022-02-24 04:53:00,,0822.1,5.01,0.00,22.7,23.2,00.0,31.6,24.6,04.6,0000.0,0007.85,0004.88,0004.46
2022-02-24 04:54:00,,0822.1,5.01,0.00,22.7,23.0,00.0,31.6,24.6,04.6,0000.0,0007.82,0004.86,0004.43
2022-02-24 04:55:00,,0822.0,5.00,0.00,22.7,22.7,00.0,31.6,24.6,04.6,0000.0,0007.66,0004.83,0004.41
2022-02-24 04:56:00,,0821.9,4.98,0.00,22.7,22.4,00.0,31.6,24.5,04.7,0000.0,0007.60,0004.79,0004.39
2022-02-24 04:57:00,,0821.9,5.00,0.00,22.6,22.1,00.0,31.6,24.4,04.7,0000.0,0007.73,0004.78,0004.37
2022-02-24 04:58:00,,0821.7,5.00,0.00,22.6,21.9,00.0,31.5,24.3,04.7,0000.0,0007.86,0004.78,0004.35
2022-02-24 04:59:00,,0821.8,5.00,0.00,22.5,21.7,00.0,31.5,24.2,04.7,-000.0,0007.77,0004.76,0004.34
